Regional Weather Roundup
Issued by NWS Northern Indiana

Home | Current Version | Previous Version | Text Only | Print | Product List | Glossary On
Versions: 1 2 3 4 5 6 7 8 9 10 11 12 13 14 15 16 17 18 19 20 21 22 23 24 25 26 27 28 29 30 31 32 33 34 35 36 37 38 39 40 41 42 43 44 45 46 47 48 49 50
000
ASUS43 KIWX 030510
RWRIWX

KIWX WEATHER ROUNDUP
NATIONAL WEATHER SERVICE NORTHERN INDIANA
100 AM EDT THU SEP 03 2015

NOTE: "FAIR" INDICATES FEW OR NO CLOUDS BELOW 12,000 FEET WITH NO
SIGNIFICANT WEATHER AND/OR OBSTRUCTIONS TO VISIBILITY.

* THESE STATIONS ARE NOT UNDER NWS QUALITY CONTROL. THEY ALSO MAY NOT
  REPORT WEATHER SUCH AS PRECIPITATION OR FOG.

INZ001>027-030600-
NORTHERN INDIANA

CITY           SKY/WX    TMP DP  RH WIND       PRES   REMARKS
GARY*          PTCLDY    73  68  83 CALM      29.98F
VALPARAISO     PTCLDY    76  69  79 S3        30.00F
MICHIGAN CITY* PTCLDY    72  70  94 CALM      29.99F
LAPORTE*       PTCLDY   N/A N/A N/A CALM      30.00F
KNOX*          MOCLDY    72  70  94 CALM      29.99S
SOUTH BEND     PTCLDY    73  68  84 SW3       30.00F
GOSHEN         PTCLDY    72  68  87 CALM      30.00F
MONTICELLO*    PTCLDY    75  71  89 S3        30.00S
LOGANSPORT*    PTCLDY    70  64  83 S5        30.03S
ROCHESTER*     MOCLDY    77  70  78 SW5       30.02S
WARSAW*        MOCLDY    70  68  94 CALM      30.01F
ANGOLA*          N/A     72  63  73 CALM      30.01F VSB 3/4
FORT WAYNE     MOCLDY    73  68  84 S3        30.02F
HUNTINGTON*    MOCLDY    72  67  82 CALM      30.02S
PERU/GRISSOM   PTCLDY    73  68  86 S6        30.01F
MARION*        PTCLDY    69  63  80 CALM      30.04S

$$
INZ028>050-030600-
CENTRAL INDIANA

CITY           SKY/WX    TMP DP  RH WIND       PRES   REMARKS
LAFAYETTE      CLEAR     71  68  90 CALM      30.01S
KOKOMO*        PTCLDY    70  64  83 S6        30.03S
MUNCIE*        PTCLDY    70  66  87 S3        30.04S
INDIANAPOLIS   CLEAR     73  68  84 SW3       30.03S

$$
MIZ043>046-050>051-056>058-064>065-071>073-077>080-030600-
SOUTHWEST LOWER MICHIGAN

CITY           SKY/WX    TMP DP  RH WIND       PRES   REMARKS
BATTLE CREEK   PTCLDY    74  69  85 SW3       30.00F
BENTON HARBOR  PTCLDY    70  68  93 CALM      29.98F
COLDWATER*     PTCLDY    69  69  99 CALM      30.01S FOG
HILLSDALE*     PTCLDY    69  69 100 CALM      30.02S FOG
HOLLAND        PTCLDY    75  70  84 W6        30.00R THUNDER
GRAND RAPIDS   PTCLDY    73  69  87 CALM      29.99R
KALAMAZOO      PTCLDY    73  69  87 CALM      30.00S
STURGIS*       PTCLDY    72  68  88 CALM      30.00F
THREE RIVERS*  FAIR      71  69  93 SW3       30.00F

$$
OHZ001>008-015>018-024>025-030600-
NORTHWEST OHIO

CITY           SKY/WX    TMP DP  RH WIND       PRES   REMARKS
WAUSEON*       CLOUDY    73  72  94 W6        30.00S
DEFIANCE       PTCLDY    72  67  84 SW3       30.01S
FINDLAY        MOCLDY    72  66  81 SW8       30.01S
TOLEDO EXPRESS PTCLDY    71  69  93 W5        29.99S
TOLEDO METCALF PTCLDY    71  67  87 CALM      29.99S
LIMA           LGT RAIN  71  66  84 CALM      30.02F

$$
AND FOR LAKE MICHIGAN COASTAL AND OPEN LAKE BUOY OBSERVATIONS

STATION/POSITION TEMP    WIND        PRES    VSBY  WAVE
                 AIR SEA DIR/SP/G                  HT/PER
                 (F)     (DEG/KT/KT) (MB)    (MI)  (FT/S)
CALUMET HARBOR    80     180/  2/  3   N/A
MICHIGAN CITY     80     160/  9/ 10   N/A
SAINT JOSEPH      79     160/  5/  9 1015.6S
SOUTH LAKE BUOY   74 71  180/  8/ 10 1013.8F
4 MI NW BRIDGMAN  76 74  230/  6/  6   N/A           1
MICHIGAN CITY     76 73  200/  4/  6   N/A           1

$$
&&


USA.gov is the U.S. government's official web portal to all federal, state and local government web resources and services.